Wind_Speed
11 12 14 15 16 17 19 21 21 21 22 20 19 21 24 26 27 29 30 30 31 31 31 30 29 27 25 26 25 25 25 24 24 23 23 24 23 22 22 22 21 20 19 20 21 22 20 18 16 15 14 13 12 11 11 11 10 10 10 10 10 10 10 11 10 10 10 10 9 8 7 7 7 7 7 7 6 6 5 4 4 3 3 3 2
12 12 13 14 14 15 16 18 18 20 21 21 20 19 21 24 25 27 28 29 31 33 33 31 29 27 26 25 25 25 25 24 23 23 23 23 23 22 23 23 23 22 21 20 21 21 21 20 18 16 15 14 14 13 12 12 11 11 11 11 11 11 11 11 11 11 11 11 10 9 8 7 7 7 7 8 7 7 6 5 5 4 4 4 3
15 15 15 13 13 14 15 16 16 18 20 20 19 18 19 21 22 25 26 27 29 31 32 31 28 26 26 25 25 25 25 25 24 23 24 23 22 22 22 23 24 24 23 22 21 21 21 20 19 17 15 14 14 14 14 13 12 12 13 13 12 12 12 12 12 12 12 12 11 10 9 9 8 7 7 8 8 8 7 7 6 6 5 5 4
16 17 16 14 12 13 16 18 19 20 20 21 20 18 20 21 22 24 24 24 24 25 26 27 27 26 26 25 25 25 26 26 25 24 24 24 23 22 21 21 22 24 25 25 24 22 21 21 21 19 17 15 15 15 15 14 14 13 14 14 14 13 13 13 12 12 12 12 12 11 10 10 10 9 8 8 8 9 8 8 8 7 6 6 5
16 17 17 16 14 14 17 19 20 22 23 23 22 21 21 22 22 23 25 24 23 23 22 21 22 24 25 25 25 25 26 26 25 25 25 25 26 24 22 20 19 20 24 27 27 26 23 22 22 22 20 18 16 16 16 16 16 15 15 15 15 14 14 14 13 13 13 13 13 12 12 12 11 11 10 9 9 9 9 9 9 8 8 7 6
16 17 18 17 16 15 17 18 20 23 24 25 25 24 25 24 23 24 26 27 24 24 23 20 21 23 24 24 25 25 25 25 25 25 25 27 27 25 23 21 19 20 22 25 28 28 27 25 23 23 22 21 19 18 18 18 17 17 17 17 17 16 15 15 14 14 13 13 14 14 14 14 13 12 12 11 10 10 9 9 9 9 9 9 8
16 17 19 18 16 15 16 16 17 21 23 24 25 25 26 25 25 24 26 28 27 26 24 22 24 25 25 25 25 25 24 24 25 25 26 28 28 27 26 24 22 22 22 23 24 26 27 25 25 24 23 22 22 21 19 19 19 19 19 19 19 18 17 16 16 15 15 15 15 15 15 15 15 14 13 12 12 11 11 10 10 10 9 9 9
17 18 19 19 17 15 15 16 16 18 20 22 23 25 26 25 24 22 23 27 30 28 25 25 25 25 27 27 27 26 25 26 25 24 24 26 27 26 26 25 23 23 22 22 22 22 24 25 25 24 23 23 22 22 21 21 21 21 21 20 20 19 18 17 16 16 16 16 16 16 16 16 16 15 15 14 13 13 12 12 11 10 10 10 10
17 18 19 19 18 15 15 16 17 17 16 17 18 21 24 25 25 23 23 25 29 29 27 28 27 26 26 28 29 28 27 28 26 25 25 26 25 23 24 24 23 23 21 22 22 22 24 24 23 23 23 23 22 22 22 22 22 22 22 22 21 20 20 19 18 17 17 17 17 17 17 16 16 16 16 15 15 14 14 13 13 12 11 11 10
15 17 18 19 18 17 16 15 16 18 18 17 16 17 20 22 24 26 26 26 27 28 28 29 29 28 27 27 29 30 30 29 28 27 26 26 26 24 24 23 22 22 22 23 23 23 23 24 24 23 23 23 22 22 23 23 23 23 23 23 22 21 21 21 20 19 19 18 18 18 17 17 17 16 16 16 16 16 15 15 14 14 13 12 12
15 16 17 19 20 19 16 14 14 16 18 20 18 17 19 21 22 26 28 28 28 29 29 29 29 30 29 28 30 31 30 29 29 29 27 26 27 28 27 25 24 24 24 24 24 23 22 22 23 24 24 24 23 24 23 23 24 25 25 24 22 21 20 21 21 21 20 20 19 18 18 18 17 17 16 16 16 17 17 16 16 15 15 14 13
14 15 16 17 19 19 16 13 12 13 14 17 17 18 19 20 21 24 28 30 31 31 30 29 31 31 30 30 30 30 29 29 29 29 29 28 28 28 27 26 24 24 23 23 23 22 21 20 21 22 24 25 24 23 22 22 23 25 27 27 25 22 21 20 21 22 22 22 21 20 19 19 18 18 17 16 16 17 17 17 17 17 16 16 15
14 14 15 15 16 17 16 13 10 10 11 14 16 16 16 17 20 24 26 28 31 33 31 30 31 32 31 30 30 29 29 29 29 29 30 31 30 27 26 25 23 23 23 24 23 23 22 22 23 22 23 23 22 21 22 23 23 25 26 27 28 26 24 22 22 22 22 23 23 22 21 21 20 20 18 17 17 17 17 17 18 18 17 17 16
14 14 14 14 15 15 16 14 11 9 9 11 13 15 15 15 17 21 24 26 28 31 32 30 30 31 31 29 29 28 28 29 29 29 31 33 32 29 28 29 27 26 25 25 25 24 24 24 25 24 22 22 23 24 26 27 26 26 26 27 28 28 27 26 24 23 23 23 23 23 23 23 22 22 20 19 17 17 16 17 17 18 18 18 18
14 14 14 14 14 13 13 13 12 10 9 9 10 11 13 14 15 16 19 22 26 28 30 30 29 29 29 29 29 28 28 28 29 30 31 31 31 30 29 28 28 27 25 25 25 25 26 26 25 25 24 24 25 27 28 28 29 29 29 28 28 28 28 28 27 26 24 24 23 24 24 24 23 23 23 21 19 18 17 17 17 17 18 18 18
15 14 14 13 13 13 12 11 11 11 10 9 9 9 10 12 13 15 16 18 21 24 27 27 27 29 30 28 29 29 28 27 28 29 30 29 29 29 29 27 26 26 24 24 25 25 26 25 23 22 22 23 24 25 27 29 30 30 30 30 30 30 29 29 29 28 26 25 24 24 24 24 23 24 24 24 22 21 19 18 18 17 18 18 18
15 14 14 13 13 13 12 11 10 11 11 11 10 9 9 10 10 12 14 16 17 20 23 25 26 28 29 28 28 30 30 29 28 29 29 29 29 29 29 27 25 24 24 25 25 24 24 24 23 22 22 24 24 23 25 27 29 30 31 31 31 31 31 30 30 29 27 26 25 25 24 24 23 23 23 24 24 23 22 21 20 19 19 19 18
16 15 14 13 13 13 13 12 11 10 10 11 10 10 10 10 10 10 11 13 15 17 19 22 24 25 25 26 26 29 31 30 29 30 30 31 32 32 31 29 27 25 26 28 27 26 25 26 27 27 27 27 27 27 28 29 30 30 31 32 33 33 33 32 31 30 28 26 26 26 25 24 23 22 22 23 24 24 24 23 23 22 21 20 19
16 15 15 14 13 13 12 12 11 10 10 10 10 10 10 10 10 10 10 11 12 14 15 17 20 22 23 24 24 24 27 29 30 29 30 31 32 33 32 31 31 29 30 31 30 30 29 29 31 32 30 28 28 30 31 31 30 29 30 32 34 35 34 33 33 32 30 29 28 28 27 26 24 23 23 23 23 24 24 24 24 24 24 23 22
18 17 16 15 14 13 13 12 11 11 10 9 10 10 9 9 9 10 10 9 10 11 12 13 15 18 20 22 22 21 22 26 29 29 29 29 31 32 32 32 32 32 32 31 30 29 27 28 30 31 30 29 30 30 30 30 30 30 30 30 32 34 36 35 34 33 33 33 32 30 28 27 26 24 24 24 24 24 25 25 25 25 25 24 24
19 18 17 16 15 15 14 13 12 11 11 10 9 10 10 9 8 8 8 8 8 9 10 11 12 14 17 19 20 21 20 21 24 25 27 28 29 31 32 33 33 32 32 31 29 28 26 27 30 29 30 30 31 31 31 32 33 32 31 29 30 33 36 37 36 35 35 35 34 32 30 29 27 26 26 26 25 25 26 26 26 26 25 25 25
21 20 18 17 16 16 16 15 14 13 12 11 10 10 10 10 9 8 8 7 7 7 8 9 10 11 13 15 18 19 20 20 22 23 25 26 27 28 28 30 31 31 31 30 30 29 28 29 30 30 30 30 31 33 33 33 34 34 32 31 30 30 33 36 37 37 37 36 36 35 33 31 29 29 28 28 27 26 26 26 26 26 26 26 25
22 21 20 18 17 17 17 16 16 15 14 13 12 11 10 10 10 10 9 8 7 7 7 7 9 10 11 12 14 16 18 19 20 22 24 26 28 29 29 29 29 29 29 29 30 31 31 32 33 33 33 33 33 35 36 37 36 36 35 34 31 29 28 30 35 38 39 38 37 37 36 34 32 32 31 30 29 28 28 28 27 27 27 26 26
23 23 22 21 19 18 18 17 17 17 16 15 15 14 12 12 11 11 10 9 8 7 7 7 7 8 10 11 12 14 16 18 19 20 22 24 26 29 31 32 31 31 31 32 33 34 35 36 37 36 36 37 37 37 39 40 39 37 37 37 33 29 27 28 31 36 39 39 38 38 38 36 34 34 34 33 32 31 30 29 29 28 28 28 27
22 23 23 23 21 20 19 18 18 18 18 17 16 15 14 14 13 12 11 11 10 9 8 7 7 7 8 9 11 12 13 15 18 19 21 22 24 26 28 30 31 31 33 35 36 36 37 38 38 38 38 38 37 38 40 41 38 37 37 37 35 32 31 30 30 33 37 40 40 39 38 37 35 34 35 36 36 34 33 32 31 30 29 29 29
21 22 23 24 23 22 21 20 19 20 20 20 19 18 16 15 15 13 12 12 12 12 10 9 8 7 8 8 10 11 11 12 14 17 19 21 22 23 25 27 29 30 31 33 34 35 35 37 38 38 38 37 38 38 39 38 37 35 35 35 34 34 33 33 33 32 34 38 41 41 40 38 34 33 33 35 37 38 36 34 33 31 31 30 30
22 22 22 23 24 23 22 22 20 20 22 22 21 20 18 16 15 14 13 12 12 12 12 12 11 10 9 9 9 10 11 11 12 14 16 18 21 22 23 25 27 28 29 31 32 33 33 35 37 38 37 36 38 38 38 38 37 35 33 33 33 34 35 35 36 35 34 35 38 41 41 39 37 34 33 33 35 38 37 35 34 33 32 32 32
23 22 22 23 24 23 23 23 22 21 22 23 23 22 21 18 16 14 14 13 13 12 12 13 13 13 12 11 11 11 11 11 12 12 13 15 17 19 21 23 25 27 28 29 31 32 33 34 35 37 37 36 36 37 37 39 39 35 33 33 33 34 36 37 38 37 36 33 34 38 41 42 41 39 36 34 34 35 36 36 35 34 33 32 33
23 23 23 24 24 24 24 24 23 22 23 24 24 23 22 20 17 15 14 13 13 13 13 13 13 14 14 14 14 13 12 12 12 12 13 14 14 15 18 20 23 25 26 27 28 30 31 32 33 34 36 35 34 35 37 39 39 36 34 33 33 34 36 37 37 37 37 35 34 36 39 42 44 43 40 37 35 35 35 36 36 36 35 33 33
24 24 25 26 25 25 24 24 24 23 23 24 24 23 22 20 18 16 14 13 13 13 14 14 14 15 15 15 16 16 15 15 14 14 14 15 15 15 16 17 19 22 24 25 26 28 29 30 31 32 32 32 31 31 34 36 37 36 34 34 34 35 36 37 37 38 38 37 36 36 38 41 44 44 43 42 39 38 36 36 37 37 36 35 34
25 25 26 27 28 27 26 25 25 24 23 23 23 22 21 20 19 18 15 14 14 14 15 15 15 16 16 17 17 17 17 17 17 16 16 16 17 17 17 16 17 18 19 21 23 25 27 28 29 30 30 30 29 29 30 32 33 33 33 33 34 35 36 37 38 38 38 38 38 38 39 41 43 43 43 43 42 41 39 38 38 38 38 37 36
26 27 28 29 30 29 27 26 25 24 23 23 23 22 21 21 20 19 17 16 16 16 16 16 16 17 18 18 18 18 18 19 19 19 19 18 18 18 18 18 17 17 17 18 18 21 24 25 26 28 29 29 29 28 27 28 28 29 30 31 32 33 35 36 37 37 37 37 38 39 40 41 43 43 43 43 43 43 42 41 40 40 40 39 39
28 29 29 30 31 31 29 28 26 26 25 24 23 23 22 21 21 21 20 19 18 18 18 18 18 18 19 19 19 19 19 20 20 21 21 21 20 20 20 20 19 19 18 17 17 18 20 23 23 24 26 27 27 27 27 26 26 26 27 27 28 29 31 32 33 35 36 37 38 38 39 41 43 44 44 44 44 44 45 44 43 42 41 41 40
32 31 32 32 32 32 31 30 28 27 26 25 24 24 23 23 23 23 22 21 20 20 20 20 19 19 19 19 20 20 20 20 21 21 22 23 23 23 22 22 22 21 21 19 19 19 20 22 22 22 23 24 25 26 26 26 25 25 26 26 26 27 27 28 29 30 33 35 36 37 38 40 41 42 43 44 44 44 44 44 44 44 43 43 42
34 33 34 33 33 33 33 32 30 29 28 26 25 24 25 24 24 24 24 24 23 21 21 21 20 19 19 20 20 20 20 21 21 22 22 23 24 24 25 25 24 24 24 23 22 22 22 23 24 24 23 24 25 25 26 26 26 26 26 26 26 27 27 27 27 27 28 30 32 34 35 37 38 40 41 42 42 42 42 43 43 44 44 44 43
35 34 35 35 35 34 34 33 32 31 30 29 27 26 26 26 26 25 25 25 24 23 21 21 19 19 19 20 21 21 21 21 22 22 22 23 23 24 25 27 27 27 27 26 26 25 25 25 26 26 26 26 26 27 27 27 27 27 27 27 27 27 27 28 28 27 28 28 29 30 32 33 35 37 39 40 41 41 41 42 42 43 43 44 44
37 37 38 38 36 35 35 35 34 34 32 30 29 28 27 28 28 27 27 27 26 23 22 21 19 19 19 20 21 21 22 22 22 23 23 22 23 23 25 26 28 29 29 29 29 29 28 28 28 29 29 29 29 29 29 29 29 29 29 29 29 29 28 28 28 28 28 28 29 29 30 32 33 34 36 37 38 38 39 39 41 42 42 43 44
38 39 41 41 39 37 37 37 36 35 34 32 30 29 28 28 29 29 29 28 27 24 23 22 21 20 21 22 23 23 22 23 23 23 23 23 23 23 24 25 27 28 30 30 31 31 31 30 30 30 31 31 31 31 31 31 31 31 32 32 31 31 30 30 30 29 28 28 28 29 30 31 32 33 34 35 36 37 38 39 41 42 43 43 44
38 38 38 39 39 38 38 37 36 36 34 32 30 29 28 28 29 29 30 29 28 25 24 23 22 22 23 24 25 24 24 23 23 23 24 24 24 24 24 25 26 27 29 30 31 31 32 32 32 31 32 32 32 32 33 33 33 33 33 34 34 33 32 32 32 31 29 28 28 29 29 30 31 32 34 35 36 38 39 40 41 42 42 43 43
39 38 37 37 38 40 39 37 35 35 34 31 29 29 28 28 29 29 29 29 29 27 26 25 24 24 24 25 26 25 24 23 22 22 23 24 24 25 26 26 27 28 29 30 31 31 32 32 33 32 33 33 33 33 34 33 33 34 34 34 35 34 34 34 34 33 31 30 29 30 30 31 31 32 33 35 37 38 39 39 40 40 41 41 42
35 36 38 39 39 37 37 35 33 33 34 32 31 29 28 29 29 28 28 29 29 29 28 26 25 25 25 26 26 25 24 23 23 22 22 23 24 25 26 26 28 29 30 31 31 32 32 33 33 33 33 34 34 34 34 34 34 34 34 34 35 35 35 36 36 35 34 33 33 33 34 33 32 33 34 35 36 37 38 40 40 41 41 41 41
28 28 31 35 34 32 32 33 32 32 32 32 31 29 27 27 26 26 27 29 30 30 29 28 27 26 26 27 26 26 25 24 24 24 25 25 26 26 27 27 28 29 30 32 32 33 34 34 34 34 34 34 35 35 35 35 35 35 35 35 35 35 35 37 38 37 36 35 36 37 38 37 35 35 36 37 38 37 38 39 41 42 43 43 43
26 24 25 29 30 30 31 31 30 30 29 30 30 29 26 26 26 25 26 28 29 31 31 29 28 27 28 27 27 27 26 26 26 27 27 28 28 29 29 30 31 32 32 33 33 34 35 35 36 36 35 35 35 36 36 37 37 37 37 36 36 36 36 37 38 39 37 37 38 39 40 39 38 38 39 40 40 39 39 40 41 42 43 43 44
23 23 25 28 29 30 31 30 29 29 28 29 30 30 28 28 28 27 27 28 30 31 32 30 29 29 29 28 28 28 28 28 29 29 29 29 30 30 31 32 33 34 35 36 36 36 36 36 36 36 36 36 36 37 37 37 37 37 37 37 37 37 37 37 38 39 39 39 39 39 40 40 39 39 41 41 41 41 41 41 42 42 43 43 44
24 24 25 26 26 29 31 31 30 31 30 30 32 32 31 30 29 28 28 30 31 32 32 31 30 30 30 30 30 29 29 29 29 29 30 30 30 30 31 32 33 34 35 36 36 36 36 36 36 36 37 37 37 37 37 37 38 38 37 38 38 38 38 38 38 39 39 39 39 40 40 41 40 39 40 41 42 42 42 43 43 44 44 44 44
26 26 27 26 27 31 33 32 32 32 31 32 33 33 32 32 30 29 30 31 32 32 32 31 31 31 31 31 30 30 29 29 29 29 30 30 30 30 30 31 31 32 33 33 34 34 35 35 35 35 35 36 36 36 36 37 37 37 37 37 37 37 38 38 38 39 38 38 38 39 39 40 40 40 40 41 42 42 42 43 44 44 45 45 46
25 27 29 28 30 33 34 33 34 34 32 31 34 34 33 32 31 30 30 31 32 32 31 31 31 32 31 31 31 30 30 30 29 29 29 29 29 29 29 30 30 30 31 31 31 32 32 33 33 33 34 34 34 35 35 35 36 36 36 36 36 37 37 37 38 38 38 37 37 37 37 38 40 40 42 43 44 43 43 43 44 44 45 45 46
28 28 27 28 29 32 33 32 33 34 31 30 33 34 32 31 32 31 31 31 31 31 31 32 32 33 32 31 30 30 30 30 29 29 29 29 29 29 29 29 29 30 30 30 30 30 30 31 31 32 32 32 33 33 33 34 34 34 35 35 35 36 36 36 37 37 37 37 36 36 36 37 38 39 41 43 45 46 46 47 46 46 45 45 46
29 29 29 29 31 33 34 33 32 33 31 30 33 33 31 31 33 33 32 31 31 31 32 32 33 33 32 31 30 30 30 30 29 29 29 29 29 29 29 29 29 29 30 30 30 29 29 29 30 30 31 31 31 31 32 32 32 33 34 34 35 35 35 35 34 34 34 34 33 34 35 36 37 38 39 41 43 44 46 47 48 47 47 47 46
28 30 30 31 31 33 34 32 32 33 32 32 33 33 32 33 35 34 32 31 32 32 33 33 34 33 32 31 30 30 30 29 29 29 29 29 29 29 29 29 29 29 30 30 30 29 29 29 29 29 30 30 30 30 30 30 31 32 32 33 34 33 33 31 31 31 31 31 31 32 33 35 36 38 39 41 42 43 43 44 45 46 47 47 47
28 29 30 31 30 31 31 31 31 31 31 33 35 36 35 35 35 34 34 33 33 33 33 34 33 33 32 32 31 31 30 29 28 29 29 29 29 29 29 29 29 30 30 30 30 30 29 29 29 29 29 29 29 29 29 29 30 31 31 32 31 30 29 29 28 29 29 29 29 30 31 33 35 37 38 40 41 41 41 40 41 42 43 44 46
Wind_Direction
318 301 291 289 281 272 268 265 258 252 250 251 254 254 251 244 236 236 234 231 233 233 232 234 235 234 235 236 235 236 237 237 240 242 242 242 243 243 244 247 251 255 256 256 254 251 252 255 254 248 243 240 240 240 241 242 244 247 250 252 252 249 245 240 235 234 233 230 226 222 219 218 218 220 222 224 225 226 228 232 237 244 256 269 276
329 321 306 295 286 272 267 268 263 255 253 253 256 260 254 242 234 233 231 230 234 237 234 230 231 231 232 235 236 236 237 238 240 242 243 243 244 244 245 248 251 256 258 257 256 254 252 253 254 251 245 242 240 241 241 242 245 248 250 252 253 253 251 248 243 240 238 237 235 231 228 228 226 226 228 230 233 233 232 232 235 238 243 255 264
335 336 329 308 288 272 263 262 260 258 256 255 256 258 253 245 240 236 232 231 234 239 234 226 227 230 231 235 238 240 242 243 244 244 245 245 245 246 248 249 251 253 256 256 254 254 253 252 251 251 247 243 241 242 241 242 245 250 253 254 254 255 255 254 251 247 244 241 240 238 235 234 234 235 234 234 237 239 239 237 237 238 239 244 252
338 339 338 322 294 275 268 263 259 257 254 252 250 248 245 244 244 238 230 228 229 233 228 218 222 231 233 236 239 242 245 246 246 246 248 250 248 246 248 250 252 251 251 252 252 252 252 252 251 250 248 245 241 240 241 241 243 247 252 255 255 255 256 256 256 253 250 246 243 242 239 237 237 238 239 239 239 240 242 243 243 243 242 241 242
342 341 342 332 309 285 273 269 265 260 255 251 249 244 241 242 241 236 231 231 230 225 215 210 221 231 234 238 241 242 246 247 247 247 248 251 252 251 249 248 251 253 250 249 248 248 249 252 253 252 251 250 247 242 240 241 241 244 249 253 253 253 254 255 255 254 251 248 245 242 240 237 236 236 238 240 242 242 242 243 245 247 248 248 245
346 345 346 340 324 301 283 274 267 260 257 253 251 249 247 248 247 241 237 235 229 218 212 215 227 235 236 238 242 244 246 249 250 251 249 250 250 253 255 250 245 246 247 248 248 248 248 251 255 255 255 254 254 250 246 244 244 245 248 251 253 252 251 251 254 253 251 247 244 241 239 238 237 236 238 240 243 245 245 245 245 247 250 253 253
347 348 349 346 335 315 296 283 271 260 257 254 251 250 250 251 253 249 243 237 227 219 218 223 231 240 242 238 241 244 245 248 251 254 255 253 249 247 249 246 242 242 244 246 248 250 249 251 254 256 256 254 255 256 254 251 249 248 250 251 252 252 251 251 252 253 252 250 246 243 241 240 239 239 238 239 242 245 248 249 249 249 250 252 256
346 349 351 351 344 329 307 291 279 265 258 257 253 249 248 249 250 249 247 243 237 232 229 228 228 231 238 239 239 241 244 246 248 251 254 254 249 244 240 237 237 239 244 247 247 248 249 251 253 254 255 255 256 257 257 256 254 252 253 254 254 253 253 252 252 253 253 252 250 248 245 241 240 240 241 241 241 244 247 250 252 253 252 252 254
346 347 350 352 349 341 320 297 282 267 255 259 260 252 247 247 247 246 249 249 248 244 237 236 232 225 230 236 237 241 244 246 248 249 250 250 247 241 236 236 235 231 237 246 246 246 248 250 252 254 257 257 257 258 258 258 257 255 254 256 256 255 254 253 253 254 254 253 252 252 250 247 243 241 243 244 244 245 246 249 251 253 254 254 254
344 345 348 351 349 346 335 310 286 270 260 263 265 255 249 248 248 248 250 251 249 247 240 236 235 231 230 232 235 239 242 244 246 248 249 249 245 240 238 241 243 239 240 247 247 247 248 249 252 257 260 258 259 261 261 260 259 258 257 257 258 257 256 255 253 253 254 255 255 255 255 254 250 246 244 245 247 248 247 248 250 252 254 254 255
341 343 346 349 350 349 342 326 301 281 270 267 266 261 258 255 251 250 251 251 250 247 240 234 236 236 235 235 236 237 238 240 243 244 246 245 242 243 246 247 247 246 246 247 249 251 252 253 254 256 258 260 263 265 264 263 262 261 259 258 258 259 258 258 256 254 253 254 256 256 257 257 256 252 247 246 247 249 249 248 248 251 253 254 255
336 339 343 347 350 351 346 331 309 291 277 268 265 265 266 259 252 250 248 249 249 248 245 241 240 239 238 240 241 240 238 239 240 241 242 241 240 244 249 247 242 244 247 249 252 254 254 256 258 259 261 264 266 265 263 265 267 265 262 259 259 260 261 260 259 257 255 254 253 254 254 256 257 255 251 248 247 249 250 250 250 250 251 253 255
329 332 338 343 347 351 351 340 315 294 276 264 262 265 270 266 255 250 249 248 249 250 250 249 246 241 239 241 243 243 240 239 239 239 241 240 240 242 243 238 240 246 251 255 257 256 255 257 261 263 264 266 266 265 265 268 269 269 267 264 261 260 261 261 260 260 258 256 254 253 253 253 255 255 254 251 249 249 251 252 253 252 251 252 254
321 325 331 337 342 348 354 352 334 310 287 269 261 260 267 272 263 255 252 251 251 252 252 252 250 244 239 240 243 243 242 241 239 238 240 241 242 243 240 238 245 251 251 253 256 257 258 258 260 261 260 262 265 266 267 269 268 267 268 267 264 261 259 260 260 261 261 259 257 256 255 254 254 255 256 254 251 251 252 254 256 256 255 253 253
313 317 322 329 335 341 349 355 350 334 315 294 276 266 265 270 273 267 261 256 252 251 252 252 251 243 237 240 242 241 242 242 242 240 240 242 243 244 242 242 249 251 248 249 251 253 255 256 258 258 258 262 266 265 264 264 264 265 266 266 265 262 259 258 258 259 260 260 259 257 256 256 256 256 256 255 253 251 250 252 254 257 258 257 255
304 309 315 320 325 330 337 348 353 348 338 323 304 288 276 271 273 273 273 269 259 251 249 249 246 239 236 239 241 241 242 243 243 242 240 240 241 242 241 241 246 248 246 248 247 247 253 256 255 255 259 265 264 262 263 263 261 262 263 263 263 262 260 258 257 257 258 259 259 258 257 256 256 256 256 255 253 251 250 250 251 254 257 259 258
296 302 308 313 316 319 324 332 344 348 345 341 331 315 300 285 276 272 272 274 267 256 248 246 244 240 238 241 244 244 243 245 246 245 242 239 239 241 239 237 241 242 242 246 246 245 251 254 252 252 256 259 257 255 260 261 260 261 261 260 259 260 259 258 256 255 255 257 258 257 256 255 254 254 254 254 253 252 250 250 250 252 254 256 258
291 295 301 307 310 311 315 320 329 338 340 341 342 338 328 314 300 287 275 270 269 264 256 250 245 242 242 242 245 246 244 244 246 246 246 244 241 239 237 236 239 239 240 244 246 246 249 250 250 250 250 251 253 254 255 257 261 262 261 260 258 257 257 257 256 255 253 254 255 254 253 252 250 250 251 252 252 251 251 251 251 250 251 254 256
289 290 295 301 306 308 311 314 319 325 329 333 336 340 342 335 325 314 300 284 276 273 268 260 250 243 240 237 238 242 242 239 240 243 245 245 242 238 235 236 239 242 244 246 246 247 250 253 253 251 249 249 252 255 256 256 259 260 258 258 257 256 256 255 255 255 253 252 251 250 249 249 249 249 250 250 251 250 250 251 252 252 250 250 253
289 288 290 295 301 306 308 311 315 317 318 322 326 329 334 339 336 329 321 309 296 288 281 274 265 256 249 244 241 243 242 239 238 240 240 240 240 238 236 237 239 242 245 246 244 246 248 251 253 251 247 247 249 253 257 256 256 257 257 257 256 256 256 256 255 254 253 250 250 250 249 249 249 249 250 251 251 251 250 250 252 253 252 251 250
289 288 288 291 296 302 304 307 311 314 315 315 315 318 320 324 328 329 327 322 313 303 294 285 278 271 263 258 253 251 249 245 243 241 239 237 238 238 239 241 241 241 243 242 240 243 246 247 250 250 249 250 251 253 255 255 255 258 260 262 260 257 256 256 255 253 252 250 249 250 250 249 249 250 250 250 251 252 251 251 252 253 254 253 251
289 289 288 290 293 297 301 303 306 310 313 314 313 311 309 308 311 317 320 322 321 311 304 297 289 282 274 266 260 257 255 252 249 247 244 239 238 239 240 240 239 238 240 239 238 242 247 248 249 250 251 252 255 255 256 256 257 259 262 264 264 261 258 256 255 254 253 251 249 248 249 250 250 250 250 250 250 251 252 252 252 253 253 254 254
289 290 289 289 290 293 296 299 302 305 308 311 313 311 307 302 300 303 306 309 314 314 313 304 296 291 284 276 267 261 258 255 252 251 248 244 242 243 243 242 241 240 241 241 243 247 251 252 252 252 253 253 254 257 258 258 259 262 265 266 266 266 264 260 255 253 253 253 251 249 249 250 250 251 251 251 250 250 251 251 251 252 253 254 254
289 289 289 288 288 289 291 294 298 301 303 304 306 308 308 303 298 297 297 297 300 306 311 308 302 296 292 288 279 269 262 258 255 253 252 250 248 247 248 248 247 247 247 247 248 251 252 254 255 255 256 256 256 257 258 259 260 261 263 265 266 265 264 262 258 254 253 253 253 251 250 251 252 253 252 252 251 250 250 250 251 251 252 254 255
287 287 286 286 287 287 287 289 293 297 299 299 299 300 303 303 300 297 295 295 293 294 296 297 301 301 297 293 289 282 273 265 261 258 257 255 254 252 252 252 251 250 250 249 249 250 252 254 255 255 255 256 256 256 257 259 261 260 260 261 263 261 258 259 258 255 254 253 252 251 250 250 253 255 254 252 251 251 250 250 252 253 253 254 255
282 283 283 284 285 286 285 286 288 291 294 295 295 294 296 298 298 297 294 294 293 292 291 290 291 293 294 294 294 292 289 281 273 266 262 260 259 257 255 254 254 253 252 252 252 251 250 251 253 253 253 254 255 255 257 260 261 261 260 258 258 259 256 255 255 255 254 252 251 250 249 248 251 256 257 253 250 250 250 250 252 254 255 255 256
278 279 280 282 283 284 284 284 285 287 289 291 292 291 291 292 292 293 293 293 293 292 291 291 289 288 287 289 292 294 295 294 288 280 272 267 263 260 258 256 256 256 254 254 254 254 252 251 252 253 253 254 256 258 261 263 262 261 261 259 255 255 254 253 253 253 254 254 252 249 248 247 249 254 258 257 253 251 250 250 251 254 256 257 257
276 276 276 277 280 281 282 283 284 285 286 286 288 288 288 288 287 287 288 291 293 293 293 291 289 287 285 285 285 286 289 291 292 291 285 278 273 268 264 261 258 257 256 255 255 255 255 253 254 255 255 254 257 260 262 262 263 262 261 259 255 252 251 251 252 253 254 256 255 251 248 247 249 252 255 258 257 254 250 248 249 251 254 257 258
275 273 273 273 275 276 278 280 282 284 284 283 284 285 284 284 284 284 285 289 292 294 295 294 290 287 284 282 281 280 280 282 283 285 286 285 283 279 273 268 264 261 260 258 258 258 257 256 256 257 257 256 256 259 260 260 263 264 262 259 256 253 252 252 252 253 254 254 254 251 248 247 248 251 253 256 256 254 251 249 248 249 252 256 259
274 271 270 270 271 272 273 276 279 282 282 281 281 282 281 280 280 281 282 285 289 291 293 296 295 292 288 283 280 277 276 276 275 277 278 281 283 282 280 276 271 266 262 261 261 262 262 261 261 261 262 260 258 258 259 261 262 263 263 261 258 255 255 255 254 253 253 253 252 252 250 249 249 250 252 254 254 253 252 251 249 249 251 256 259
270 268 267 266 267 268 269 271 275 278 280 279 277 277 277 277 277 277 277 280 284 287 289 292 294 294 293 289 284 280 276 274 273 273 273 275 278 280 280 280 278 274 268 264 262 264 265 265 266 267 267 267 265 262 261 262 263 263 263 262 260 258 257 257 257 256 255 253 252 251 252 251 251 251 251 252 253 252 252 252 251 251 252 255 258
266 266 265 264 264 265 266 268 271 273 276 275 273 272 272 273 274 273 273 276 280 284 286 288 290 290 291 290 288 284 280 276 274 273 272 272 273 275 277 278 278 277 274 269 264 263 265 267 268 269 271 271 271 270 266 265 265 265 264 263 262 260 260 259 259 258 257 256 254 252 252 252 253 253 252 252 253 253 253 253 253 253 254 255 256
265 265 264 262 262 264 265 267 268 269 272 272 269 267 267 269 271 270 269 271 275 280 284 287 287 287 286 286 286 285 283 280 276 274 273 272 271 272 273 274 274 274 274 272 268 265 266 268 269 270 272 273 274 275 274 272 269 267 266 265 264 262 262 262 261 260 259 257 256 254 253 253 254 254 254 254 254 254 254 254 254 255 255 255 255
263 263 263 261 261 262 264 266 267 267 268 269 266 264 264 265 267 267 266 266 270 275 281 285 286 285 284 284 284 283 282 281 278 275 272 271 270 271 271 272 272 271 272 271 269 266 266 268 270 270 272 274 275 276 277 277 276 273 271 269 267 265 263 263 263 263 262 259 257 256 255 255 256 256 257 257 257 257 257 257 256 256 256 256 255
260 260 260 259 259 261 262 264 267 267 265 266 265 262 262 264 266 267 266 266 267 272 278 282 283 283 283 282 282 282 281 280 278 276 273 270 269 269 270 270 271 271 271 271 269 267 266 267 270 271 272 274 275 276 277 278 278 277 275 273 270 268 266 264 264 264 264 263 262 259 258 257 257 257 258 258 258 258 257 257 255 255 254 254 254
261 259 258 258 257 258 261 263 264 265 265 265 264 262 260 261 263 264 265 265 266 270 274 277 279 281 282 282 281 280 279 278 277 276 274 272 270 269 269 270 270 271 271 271 270 269 268 268 269 271 272 273 274 275 276 277 277 277 276 275 273 270 268 266 265 263 262 262 262 261 259 258 257 257 258 258 258 257 257 256 256 255 255 255 254
262 259 256 256 255 257 259 260 261 263 265 265 263 260 259 259 261 262 263 262 262 266 270 272 273 276 279 280 280 279 278 277 276 275 275 274 272 271 270 270 270 270 270 271 271 270 269 269 269 270 271 272 273 275 275 276 277 277 277 276 274 273 271 269 266 263 261 260 259 258 258 258 257 258 258 260 260 260 259 258 257 257 256 256 255
263 261 258 256 254 254 256 257 259 262 263 264 263 261 258 258 261 263 263 262 260 262 265 266 268 272 276 279 279 277 275 274 273 274 274 274 274 273 273 272 272 271 271 271 271 271 271 270 269 269 270 271 272 273 274 275 276 277 278 278 276 275 274 272 270 266 262 260 260 258 257 256 255 255 255 257 258 258 258 256 255 254 254 254 254
266 265 263 259 254 252 253 255 257 259 261 262 263 261 259 258 260 262 263 263 261 260 261 261 263 268 274 278 278 276 274 272 271 271 272 273 274 275 275 275 275 275 274 273 273 272 272 271 271 270 270 270 271 271 272 273 274 275 276 277 277 277 276 275 274 272 268 264 262 261 259 257 255 253 252 251 252 253 254 254 254 253 253 253 254
266 265 264 262 255 251 251 251 252 256 261 263 261 259 258 258 259 261 262 262 261 259 259 260 262 267 273 277 276 274 271 271 271 271 271 272 273 274 274 275 275 276 276 275 275 274 273 273 272 271 271 271 271 271 271 271 271 272 272 273 274 276 277 277 276 275 273 271 268 267 265 262 259 257 254 252 251 251 251 252 253 253 253 252 252
264 262 258 254 251 249 248 248 249 254 260 262 260 258 257 257 258 260 261 261 259 257 258 261 264 268 273 275 274 271 269 271 272 273 274 275 275 276 276 275 275 275 275 275 274 274 274 273 272 272 271 271 271 271 271 271 271 271 271 271 272 273 274 275 275 275 275 274 273 272 270 268 265 263 261 258 256 253 252 251 251 251 251 250 249
265 262 253 247 247 249 249 250 252 255 258 260 261 259 257 257 259 261 261 260 258 255 256 261 265 268 272 274 272 269 268 271 273 275 277 278 279 279 279 278 277 276 275 275 274 274 273 273 272 272 271 270 270 271 271 272 272 272 272 272 272 272 273 273 274 275 275 275 275 274 272 271 270 268 266 263 261 258 256 254 252 250 250 249 248
265 262 254 248 250 252 252 252 253 254 256 260 261 260 258 259 261 262 262 260 257 254 256 260 264 266 270 271 270 268 269 271 273 276 278 279 280 281 281 280 279 278 276 275 274 273 273 272 272 271 271 271 270 271 271 272 272 272 272 272 272 272 272 272 272 273 274 274 273 273 272 271 271 270 269 267 265 262 260 258 256 254 252 251 250
263 260 257 254 254 254 254 254 251 251 254 258 260 261 262 262 262 263 262 259 255 252 254 259 262 265 268 270 269 269 270 272 274 277 278 280 282 282 282 281 280 278 277 275 274 273 272 272 272 271 271 271 271 271 271 272 272 272 272 272 272 272 272 272 272 273 273 273 273 272 272 271 270 269 269 268 267 266 264 262 260 257 256 254 253
262 261 259 257 258 259 259 257 255 254 257 260 262 263 265 264 264 263 262 259 254 251 253 257 260 263 266 269 270 270 272 274 276 279 281 283 284 285 285 284 283 281 279 277 275 273 272 271 271 271 271 271 271 271 271 272 272 272 272 272 272 272 272 272 272 272 272 272 272 272 272 272 271 269 269 268 268 267 267 265 264 262 259 258 256
262 260 260 258 258 259 261 261 261 261 263 264 265 265 266 266 266 264 261 258 253 251 253 257 259 262 267 269 270 271 273 275 277 281 284 287 288 288 288 287 286 284 282 280 278 276 274 272 271 271 270 270 271 271 271 271 271 272 272 271 271 271 271 271 271 270 270 270 270 270 271 272 272 271 271 270 269 268 268 267 267 265 263 261 259
265 262 262 262 261 261 262 262 262 262 263 264 265 266 266 266 266 263 258 254 252 252 254 256 260 263 267 269 269 271 273 275 278 282 286 289 290 290 290 289 287 287 286 284 282 280 277 275 274 273 271 270 270 270 270 270 270 271 270 271 271 271 271 272 272 272 271 270 269 269 269 269 270 271 272 271 271 270 269 267 266 265 265 264 262
268 265 262 263 264 265 265 264 263 261 260 261 264 265 265 264 262 258 254 251 250 252 255 257 260 263 265 266 268 271 273 275 278 283 287 290 290 290 289 288 288 288 288 287 286 283 280 278 276 274 273 271 270 270 269 269 269 270 270 270 271 272 273 274 274 274 274 273 272 271 270 270 271 271 270 270 270 270 269 267 266 265 265 265 264
267 265 260 258 260 263 265 266 264 261 260 260 262 263 261 258 254 251 249 249 251 253 257 259 262 263 264 265 267 271 273 274 277 283 289 291 290 289 288 288 287 288 288 288 287 285 283 280 277 276 274 272 271 270 269 268 269 269 270 270 272 273 274 274 274 275 276 276 277 276 275 275 275 274 273 271 270 269 268 268 268 267 265 264 263
265 261 259 258 260 262 264 265 263 261 261 261 261 260 256 251 249 250 250 252 254 257 260 262 263 263 263 264 267 270 272 274 279 285 289 291 290 289 288 287 287 287 287 287 287 286 284 281 278 276 274 273 271 269 268 268 268 269 270 271 273 273 274 274 274 276 278 279 280 281 280 279 279 278 277 276 274 272 270 269 268 267 266 264 262
267 263 261 261 262 264 263 263 263 264 263 261 260 258 253 247 247 251 253 255 257 259 261 262 262 262 262 263 267 270 272 275 280 285 289 290 290 289 287 287 286 285 285 285 285 285 284 281 278 276 273 271 270 268 267 267 268 270 271 272 272 272 273 274 275 277 279 281 282 283 282 281 280 278 277 277 276 277 276 275 272 270 268 266 263
Height
5794 5794 5794 5794 5794 5794 5794 5794 5794 5794 5795 5796 5797 5797 5798 5799 5800 5801 5802 5804 5806 5807 5809 5810 5812 5814 5815 5816 5818 5819 5820 5821 5822 5823 5825 5826 5827 5829 5830 5831 5832 5833 5834 5835 5836 5837 5838 5839 5840 5840 5841 5841 5842 5842 5842 5842 5843 5843 5843 5843 5844 5844 5844 5844 5845 5845 5846 5846 5847 5847 5847 5847 5847 5847 5847 5847 5847 5847 5847 5848 5848 5848 5848 5848 5848
5793 5793 5792 5792 5791 5791 5792 5792 5791 5791 5793 5794 5795 5795 5795 5795 5797 5798 5799 5801 5803 5805 5806 5808 5809 5811 5813 5814 5815 5817 5818 5819 5820 5821 5822 5824 5826 5827 5828 5829 5830 5831 5832 5833 5834 5835 5836 5837 5838 5839 5839 5840 5840 5841 5841 5841 5842 5842 5842 5842 5843 5843 5843 5843 5844 5844 5845 5845 5846 5846 5846 5847 5847 5847 5847 5847 5847 5847 5847 5847 5847 5847 5847 5847 5847
5791 5791 5790 5790 5790 5789 5789 5789 5788 5789 5791 5792 5793 5793 5793 5794 5795 5796 5797 5798 5800 5802 5803 5805 5807 5809 5811 5812 5814 5815 5816 5817 5818 5819 5820 5821 5823 5824 5825 5827 5828 5829 5830 5831 5832 5833 5834 5835 5836 5837 5837 5838 5838 5839 5840 5840 5841 5841 5841 5842 5842 5842 5842 5843 5843 5843 5844 5844 5845 5845 5845 5846 5846 5846 5846 5846 5847 5847 5846 5846 5846 5846 5846 5847 5847
5790 5790 5789 5788 5788 5787 5787 5786 5786 5788 5789 5790 5791 5792 5792 5793 5794 5794 5795 5797 5798 5800 5801 5803 5806 5807 5809 5810 5812 5813 5814 5815 5816 5817 5818 5819 5820 5821 5822 5824 5825 5826 5828 5829 5830 5831 5832 5833 5834 5835 5835 5836 5836 5837 5838 5838 5839 5840 5840 5841 5841 5841 5841 5842 5842 5842 5842 5843 5843 5844 5844 5844 5845 5845 5845 5846 5846 5846 5846 5846 5846 5846 5846 5846 5846
5790 5789 5788 5786 5785 5785 5785 5784 5785 5786 5786 5787 5788 5790 5791 5791 5792 5792 5794 5796 5797 5798 5799 5800 5803 5805 5806 5808 5810 5811 5812 5813 5814 5815 5816 5817 5817 5819 5820 5822 5823 5824 5825 5826 5827 5828 5830 5831 5832 5833 5834 5834 5835 5835 5836 5836 5837 5838 5838 5839 5840 5840 5840 5841 5841 5841 5841 5841 5842 5842 5842 5843 5843 5843 5844 5844 5845 5845 5845 5845 5845 5845 5845 5845 5845
5790 5789 5787 5785 5783 5783 5783 5783 5783 5783 5784 5785 5787 5788 5789 5790 5790 5791 5792 5795 5796 5796 5796 5796 5800 5802 5803 5805 5807 5808 5810 5811 5812 5813 5814 5814 5815 5818 5820 5820 5820 5820 5821 5822 5824 5825 5827 5828 5830 5831 5832 5833 5833 5834 5834 5835 5835 5836 5837 5837 5838 5838 5839 5839 5840 5840 5840 5840 5840 5840 5840 5841 5841 5842 5843 5843 5844 5844 5844 5844 5844 5844 5844 5844 5844
5789 5788 5786 5784 5783 5781 5781 5781 5781 5781 5782 5783 5785 5786 5787 5787 5788 5789 5790 5792 5793 5793 5792 5792 5795 5799 5800 5801 5803 5805 5807 5809 5810 5811 5812 5812 5811 5814 5817 5818 5817 5816 5817 5819 5821 5823 5825 5826 5828 5829 5830 5831 5832 5832 5833 5833 5834 5834 5835 5836 5836 5837 5838 5838 5839 5839 5839 5839 5839 5839 5839 5839 5840 5840 5841 5842 5842 5843 5843 5844 5844 5844 5843 5843 5843
5787 5786 5786 5784 5782 5781 5780 5779 5779 5780 5780 5781 5782 5783 5785 5785 5785 5786 5787 5788 5789 5790 5789 5789 5790 5794 5796 5797 5799 5802 5804 5806 5807 5809 5810 5809 5809 5811 5813 5814 5814 5813 5815 5817 5818 5820 5823 5824 5826 5827 5828 5829 5829 5830 5831 5831 5832 5832 5833 5834 5835 5835 5836 5837 5837 5838 5838 5838 5838 5838 5838 5838 5838 5838 5839 5840 5841 5841 5842 5842 5843 5843 5842 5842 5842
5786 5785 5784 5783 5782 5780 5779 5778 5778 5778 5778 5779 5779 5780 5781 5782 5783 5784 5784 5785 5786 5787 5787 5787 5788 5789 5791 5792 5795 5798 5800 5802 5805 5806 5807 5807 5807 5809 5810 5811 5811 5811 5813 5814 5815 5817 5820 5822 5823 5824 5826 5826 5827 5828 5828 5829 5830 5830 5831 5832 5833 5834 5834 5835 5836 5836 5837 5837 5837 5837 5837 5837 5836 5837 5837 5838 5839 5840 5840 5841 5841 5842 5841 5841 5841
5785 5784 5782 5781 5780 5779 5778 5777 5776 5776 5776 5777 5777 5777 5777 5778 5780 5781 5781 5782 5783 5785 5785 5786 5788 5788 5788 5789 5792 5795 5797 5799 5801 5803 5804 5805 5805 5806 5808 5809 5809 5810 5811 5812 5813 5815 5817 5819 5820 5822 5823 5824 5825 5825 5826 5827 5828 5828 5829 5830 5831 5832 5833 5833 5834 5834 5835 5835 5836 5836 5836 5836 5836 5835 5835 5836 5837 5838 5839 5839 5840 5840 5840 5840 5840
5785 5783 5782 5780 5779 5778 5777 5776 5775 5774 5774 5774 5774 5775 5775 5775 5777 5778 5778 5779 5780 5782 5783 5784 5786 5787 5787 5787 5788 5790 5792 5794 5796 5799 5801 5802 5803 5803 5805 5806 5807 5808 5808 5810 5811 5813 5814 5816 5817 5819 5820 5821 5823 5824 5824 5825 5825 5826 5827 5828 5829 5830 5830 5831 5832 5832 5833 5833 5834 5834 5835 5835 5835 5835 5834 5834 5835 5836 5837 5838 5838 5839 5839 5839 5839
5784 5783 5781 5780 5778 5777 5775 5775 5774 5773 5772 5772 5772 5772 5772 5773 5774 5775 5776 5777 5778 5779 5781 5782 5783 5784 5785 5785 5786 5788 5790 5791 5793 5795 5797 5798 5799 5800 5802 5803 5805 5806 5806 5808 5810 5811 5812 5814 5815 5816 5817 5819 5820 5821 5822 5823 5823 5824 5825 5825 5826 5827 5828 5829 5830 5830 5831 5831 5832 5832 5833 5833 5834 5834 5833 5833 5833 5834 5835 5835 5836 5837 5837 5838 5838
5784 5783 5782 5780 5779 5777 5775 5774 5773 5772 5772 5771 5771 5771 5771 5771 5772 5772 5773 5774 5775 5776 5778 5780 5780 5781 5782 5783 5784 5786 5788 5789 5790 5791 5793 5794 5796 5798 5799 5801 5803 5804 5805 5806 5807 5808 5809 5810 5811 5813 5815 5816 5818 5819 5820 5821 5821 5822 5822 5823 5824 5825 5825 5826 5827 5828 5828 5829 5829 5830 5830 5831 5832 5832 5832 5832 5832 5832 5833 5833 5834 5834 5835 5836 5836
5783 5782 5781 5780 5779 5777 5775 5773 5772 5771 5771 5771 5770 5770 5770 5770 5770 5770 5771 5771 5772 5773 5774 5776 5778 5779 5779 5780 5782 5784 5785 5786 5787 5788 5789 5791 5794 5796 5797 5799 5801 5802 5803 5803 5804 5804 5805 5807 5808 5810 5812 5813 5814 5815 5816 5818 5819 5819 5820 5820 5821 5821 5822 5823 5824 5825 5826 5826 5827 5827 5828 5829 5830 5831 5831 5831 5831 5831 5831 5831 5832 5832 5833 5834 5834
5782 5781 5780 5779 5778 5777 5776 5774 5772 5771 5770 5770 5769 5769 5769 5769 5769 5769 5769 5768 5769 5770 5771 5773 5775 5776 5777 5778 5779 5780 5782 5783 5784 5785 5786 5788 5791 5793 5795 5797 5798 5798 5800 5801 5801 5802 5803 5804 5805 5807 5808 5809 5809 5810 5811 5813 5814 5815 5816 5817 5818 5818 5819 5820 5821 5822 5823 5824 5824 5825 5826 5826 5827 5828 5829 5829 5829 5829 5829 5830 5830 5830 5831 5831 5832
5781 5780 5780 5779 5778 5777 5776 5774 5773 5771 5770 5769 5768 5768 5767 5767 5767 5767 5767 5767 5767 5768 5769 5770 5771 5773 5774 5775 5776 5777 5779 5780 5781 5781 5783 5786 5788 5789 5791 5794 5795 5795 5796 5797 5798 5799 5800 5801 5802 5804 5804 5805 5806 5807 5807 5808 5809 5810 5812 5813 5814 5815 5816 5817 5818 5819 5820 5821 5822 5822 5823 5824 5824 5825 5826 5827 5827 5827 5827 5828 5828 5828 5829 5829 5830
5780 5779 5779 5778 5777 5777 5775 5774 5773 5772 5770 5769 5768 5767 5766 5766 5766 5765 5765 5765 5766 5766 5767 5768 5769 5770 5771 5772 5773 5774 5776 5777 5778 5778 5780 5782 5785 5786 5787 5790 5791 5792 5793 5793 5795 5796 5797 5798 5799 5800 5802 5802 5803 5804 5804 5804 5805 5807 5808 5809 5810 5811 5812 5814 5815 5816 5817 5818 5819 5819 5820 5820 5821 5822 5822 5823 5824 5825 5825 5825 5826 5826 5826 5827 5827
5779 5778 5778 5777 5777 5776 5775 5774 5773 5772 5770 5769 5768 5767 5766 5765 5765 5764 5764 5764 5764 5765 5765 5766 5767 5767 5768 5769 5770 5771 5773 5774 5775 5776 5777 5779 5781 5783 5784 5786 5788 5789 5790 5790 5792 5794 5794 5795 5797 5798 5799 5800 5800 5800 5801 5802 5803 5804 5804 5805 5806 5807 5809 5810 5811 5812 5814 5815 5815 5816 5816 5817 5818 5818 5819 5820 5821 5822 5823 5823 5823 5824 5824 5825 5825
5777 5777 5776 5776 5776 5775 5774 5773 5772 5771 5770 5769 5768 5767 5766 5765 5764 5763 5763 5763 5763 5763 5763 5764 5764 5765 5766 5767 5768 5768 5769 5771 5772 5773 5774 5776 5778 5779 5781 5783 5785 5786 5787 5788 5789 5790 5791 5793 5794 5794 5796 5797 5797 5796 5797 5799 5800 5801 5801 5801 5802 5803 5805 5807 5808 5809 5810 5811 5811 5812 5813 5814 5815 5816 5817 5817 5818 5819 5820 5820 5820 5821 5822 5822 5823
5775 5775 5775 5774 5774 5774 5773 5773 5772 5771 5769 5768 5767 5766 5765 5765 5764 5763 5762 5762 5761 5761 5761 5762 5762 5763 5763 5764 5765 5766 5767 5768 5769 5770 5772 5773 5774 5776 5778 5779 5781 5782 5783 5785 5786 5787 5789 5790 5789 5790 5792 5792 5792 5793 5794 5795 5796 5796 5797 5798 5799 5800 5801 5802 5804 5805 5806 5807 5807 5808 5810 5811 5812 5813 5814 5815 5815 5816 5817 5817 5818 5818 5819 5819 5820
5773 5773 5773 5772 5772 5772 5771 5771 5770 5770 5769 5768 5767 5766 5765 5764 5763 5762 5761 5760 5760 5760 5760 5760 5760 5761 5761 5762 5762 5763 5764 5765 5766 5768 5769 5770 5771 5772 5774 5775 5777 5779 5780 5781 5783 5784 5785 5786 5786 5787 5788 5788 5789 5790 5790 5791 5792 5792 5793 5795 5796 5796 5797 5798 5800 5801 5802 5802 5804 5805 5806 5808 5809 5810 5811 5811 5812 5812 5813 5814 5815 5815 5816 5816 5817
5770 5771 5770 5770 5770 5769 5769 5769 5768 5768 5767 5766 5765 5765 5764 5763 5762 5762 5761 5760 5759 5759 5758 5758 5758 5759 5759 5760 5760 5761 5762 5762 5763 5765 5766 5767 5768 5769 5771 5772 5773 5775 5777 5778 5780 5781 5782 5783 5783 5784 5784 5785 5786 5786 5787 5787 5788 5788 5790 5792 5793 5793 5794 5794 5796 5796 5797 5798 5800 5801 5802 5804 5805 5806 5807 5808 5808 5809 5810 5810 5811 5812 5813 5813 5814
5769 5768 5768 5768 5768 5767 5767 5767 5766 5766 5765 5764 5764 5763 5762 5762 5761 5761 5760 5759 5759 5758 5757 5757 5757 5757 5757 5758 5758 5758 5759 5760 5761 5762 5763 5764 5765 5766 5767 5769 5770 5772 5774 5775 5777 5778 5778 5779 5779 5780 5781 5782 5782 5782 5782 5783 5784 5785 5787 5788 5789 5791 5791 5791 5791 5791 5792 5794 5795 5797 5798 5799 5801 5802 5803 5804 5805 5806 5806 5807 5808 5808 5809 5810 5811
5767 5766 5766 5765 5765 5765 5765 5764 5764 5764 5763 5763 5762 5761 5761 5760 5760 5759 5759 5758 5758 5757 5757 5756 5756 5756 5756 5756 5756 5756 5757 5757 5758 5759 5759 5760 5761 5762 5764 5765 5767 5769 5770 5772 5773 5773 5774 5774 5775 5776 5777 5777 5778 5778 5777 5777 5780 5782 5783 5784 5786 5787 5787 5787 5787 5787 5787 5789 5791 5792 5794 5795 5796 5797 5799 5800 5801 5802 5803 5803 5804 5805 5805 5806 5807
5765 5764 5763 5763 5763 5762 5763 5762 5762 5762 5761 5761 5760 5759 5759 5758 5757 5757 5757 5756 5756 5756 5756 5755 5755 5755 5755 5754 5754 5754 5754 5755 5755 5756 5757 5758 5758 5759 5760 5761 5763 5764 5766 5766 5768 5769 5769 5770 5770 5771 5772 5772 5773 5773 5772 5772 5775 5778 5779 5780 5781 5782 5782 5782 5782 5783 5783 5784 5786 5787 5789 5790 5791 5792 5794 5795 5796 5797 5798 5799 5800 5801 5802 5802 5803
5763 5762 5761 5761 5760 5760 5760 5760 5760 5760 5759 5759 5758 5758 5757 5756 5755 5755 5755 5754 5754 5754 5754 5754 5754 5754 5753 5753 5753 5753 5753 5753 5753 5754 5754 5755 5756 5756 5757 5758 5758 5760 5761 5762 5763 5764 5765 5765 5765 5766 5767 5768 5768 5768 5768 5768 5771 5772 5774 5776 5777 5777 5777 5777 5777 5778 5779 5779 5780 5782 5784 5785 5787 5788 5788 5790 5791 5792 5793 5795 5796 5797 5798 5798 5799
5760 5760 5759 5758 5758 5758 5758 5758 5758 5758 5757 5757 5756 5756 5755 5754 5753 5753 5752 5752 5752 5751 5751 5751 5751 5751 5751 5751 5751 5751 5751 5751 5751 5752 5752 5753 5753 5754 5754 5755 5755 5756 5757 5758 5759 5759 5760 5761 5761 5761 5763 5764 5763 5764 5764 5764 5765 5768 5769 5770 5771 5771 5771 5772 5772 5772 5773 5774 5775 5777 5779 5781 5782 5783 5783 5784 5786 5787 5789 5790 5791 5792 5793 5794 5795
5757 5757 5756 5756 5756 5756 5756 5755 5755 5755 5755 5755 5754 5754 5753 5752 5752 5751 5750 5750 5749 5749 5749 5749 5749 5749 5749 5749 5749 5749 5749 5749 5749 5750 5750 5750 5751 5751 5752 5752 5752 5753 5753 5754 5755 5755 5756 5757 5757 5757 5758 5759 5760 5760 5760 5759 5760 5763 5765 5765 5765 5766 5766 5766 5767 5767 5768 5770 5771 5772 5774 5775 5776 5777 5779 5780 5781 5782 5784 5785 5786 5788 5789 5790 5790
5754 5754 5753 5753 5753 5753 5753 5753 5753 5753 5752 5752 5752 5751 5751 5750 5749 5749 5748 5748 5747 5747 5746 5746 5746 5746 5746 5746 5746 5747 5747 5747 5748 5748 5748 5748 5748 5748 5749 5749 5749 5750 5750 5750 5751 5751 5751 5752 5753 5752 5753 5755 5756 5756 5755 5755 5755 5758 5759 5760 5760 5761 5761 5761 5762 5763 5764 5765 5766 5767 5768 5769 5770 5772 5774 5775 5777 5778 5778 5780 5781 5782 5784 5785 5786
5750 5750 5750 5749 5749 5750 5750 5750 5749 5749 5749 5749 5749 5749 5749 5748 5747 5747 5746 5746 5745 5745 5744 5744 5744 5744 5744 5744 5744 5744 5744 5745 5745 5746 5746 5746 5746 5746 5746 5746 5746 5746 5747 5747 5747 5747 5747 5748 5748 5748 5749 5750 5751 5752 5751 5751 5752 5753 5754 5755 5755 5756 5756 5756 5757 5758 5759 5760 5761 5762 5763 5764 5765 5766 5768 5770 5771 5773 5774 5775 5776 5777 5779 5780 5781
5746 5746 5746 5746 5746 5746 5746 5746 5746 5746 5746 5746 5746 5746 5746 5746 5745 5745 5744 5744 5743 5743 5742 5742 5741 5741 5741 5741 5741 5741 5742 5742 5742 5743 5743 5743 5744 5744 5744 5744 5744 5744 5744 5744 5745 5744 5744 5744 5744 5744 5745 5745 5746 5747 5747 5747 5747 5748 5749 5750 5750 5751 5751 5752 5752 5753 5753 5754 5756 5757 5758 5758 5759 5761 5762 5764 5766 5767 5768 5770 5771 5772 5774 5775 5776
5742 5742 5742 5742 5742 5743 5743 5743 5743 5743 5743 5743 5743 5743 5743 5743 5743 5743 5742 5742 5741 5741 5740 5740 5739 5739 5739 5739 5739 5739 5739 5739 5739 5740 5740 5741 5741 5741 5741 5741 5741 5741 5741 5742 5742 5742 5741 5741 5741 5741 5741 5741 5741 5742 5743 5743 5744 5744 5745 5745 5746 5746 5747 5747 5747 5748 5749 5749 5750 5752 5753 5753 5754 5755 5757 5758 5760 5761 5763 5764 5766 5767 5768 5769 5770
5738 5738 5738 5739 5739 5739 5740 5740 5740 5740 5740 5740 5739 5740 5740 5740 5740 5740 5740 5740 5739 5739 5738 5738 5737 5737 5736 5736 5736 5736 5736 5736 5736 5736 5737 5737 5738 5738 5738 5739 5739 5739 5739 5739 5739 5739 5738 5738 5738 5738 5737 5738 5738 5738 5739 5739 5740 5740 5741 5741 5742 5742 5742 5743 5743 5743 5744 5744 5745 5746 5747 5748 5749 5749 5751 5752 5754 5755 5757 5758 5760 5761 5762 5764 5765
5733 5734 5734 5735 5735 5736 5736 5736 5736 5736 5736 5736 5736 5736 5736 5737 5737 5737 5737 5737 5737 5736 5736 5736 5735 5735 5734 5734 5734 5734 5734 5733 5733 5733 5734 5734 5735 5735 5735 5736 5736 5736 5736 5736 5736 5736 5736 5735 5735 5735 5735 5735 5735 5735 5735 5735 5736 5736 5737 5737 5737 5738 5738 5738 5739 5739 5739 5739 5740 5741 5742 5743 5744 5744 5745 5747 5748 5749 5751 5752 5754 5755 5757 5758 5759
5728 5728 5729 5730 5731 5732 5732 5733 5733 5733 5732 5732 5732 5732 5732 5733 5733 5733 5734 5734 5734 5734 5734 5733 5733 5733 5732 5732 5731 5731 5731 5731 5731 5730 5730 5730 5731 5731 5732 5732 5732 5732 5732 5732 5732 5732 5733 5732 5731 5731 5732 5732 5731 5731 5731 5731 5732 5732 5732 5733 5733 5733 5734 5734 5735 5735 5735 5735 5736 5737 5738 5738 5739 5739 5740 5741 5742 5743 5744 5746 5747 5749 5750 5751 5753
5722 5723 5724 5725 5726 5727 5728 5729 5729 5729 5729 5729 5729 5728 5729 5729 5729 5730 5730 5730 5730 5730 5730 5730 5730 5730 5730 5730 5729 5729 5728 5728 5728 5727 5727 5727 5727 5727 5728 5728 5728 5728 5728 5728 5728 5729 5729 5729 5728 5728 5728 5728 5728 5728 5728 5728 5728 5728 5728 5728 5728 5729 5729 5730 5730 5730 5731 5731 5731 5732 5733 5733 5734 5734 5734 5735 5736 5737 5738 5740 5741 5742 5744 5745 5747
5716 5717 5718 5719 5721 5722 5723 5724 5724 5724 5725 5725 5725 5725 5725 5725 5725 5726 5726 5727 5727 5727 5727 5727 5727 5727 5727 5727 5727 5726 5726 5725 5725 5724 5724 5724 5724 5724 5724 5724 5724 5725 5725 5725 5724 5725 5725 5725 5725 5724 5724 5724 5724 5723 5724 5724 5724 5724 5724 5724 5724 5724 5725 5725 5725 5725 5726 5726 5727 5727 5728 5728 5729 5729 5729 5730 5731 5732 5734 5735 5736 5737 5738 5739 5741
5711 5712 5712 5713 5715 5717 5718 5718 5719 5720 5720 5721 5721 5721 5721 5722 5722 5722 5722 5723 5723 5724 5724 5724 5724 5723 5723 5723 5723 5723 5723 5722 5722 5721 5721 5721 5721 5720 5720 5720 5721 5721 5721 5721 5721 5720 5721 5721 5721 5721 5720 5720 5720 5719 5719 5720 5720 5719 5719 5719 5719 5720 5720 5720 5720 5720 5721 5722 5722 5722 5723 5723 5724 5725 5725 5726 5727 5727 5728 5729 5730 5731 5732 5733 5734
5705 5706 5706 5707 5709 5711 5712 5713 5714 5714 5715 5716 5716 5716 5717 5718 5718 5718 5718 5719 5719 5720 5720 5720 5720 5720 5720 5720 5720 5720 5719 5719 5719 5718 5718 5718 5717 5717 5717 5717 5717 5717 5717 5717 5716 5716 5716 5716 5717 5717 5716 5716 5716 5716 5715 5715 5715 5715 5715 5715 5714 5715 5715 5715 5715 5716 5716 5717 5717 5718 5718 5718 5719 5720 5720 5721 5721 5721 5722 5723 5724 5725 5726 5728 5729
5699 5700 5701 5702 5703 5705 5707 5708 5709 5709 5709 5711 5712 5712 5713 5713 5713 5713 5714 5715 5715 5716 5716 5716 5716 5716 5716 5716 5716 5716 5716 5715 5715 5715 5715 5715 5714 5714 5714 5713 5713 5713 5713 5713 5713 5712 5712 5712 5712 5712 5712 5712 5711 5711 5711 5711 5711 5711 5711 5711 5711 5710 5710 5710 5710 5710 5711 5712 5713 5713 5713 5713 5714 5714 5715 5715 5715 5716 5717 5718 5719 5720 5721 5722 5723
5693 5694 5695 5696 5697 5700 5702 5703 5704 5704 5704 5705 5707 5707 5708 5708 5708 5709 5709 5710 5711 5711 5712 5712 5712 5712 5713 5713 5713 5713 5712 5712 5712 5712 5711 5711 5711 5710 5710 5710 5709 5709 5709 5709 5709 5708 5708 5708 5708 5708 5708 5708 5707 5707 5707 5707 5707 5707 5707 5707 5707 5707 5706 5705 5704 5705 5706 5707 5708 5708 5707 5707 5709 5709 5710 5710 5710 5711 5712 5713 5713 5714 5715 5716 5717
5689 5689 5690 5691 5693 5695 5696 5697 5698 5700 5700 5701 5701 5702 5703 5703 5704 5704 5705 5706 5706 5707 5708 5708 5708 5709 5709 5709 5709 5709 5709 5708 5708 5708 5707 5707 5707 5706 5706 5706 5705 5705 5705 5704 5704 5704 5704 5704 5704 5704 5704 5704 5703 5703 5702 5702 5702 5702 5702 5702 5702 5702 5702 5701 5699 5700 5702 5702 5702 5702 5701 5701 5703 5704 5704 5704 5704 5705 5706 5707 5707 5708 5709 5710 5711
5685 5686 5687 5688 5689 5691 5691 5692 5693 5695 5695 5696 5696 5697 5698 5699 5699 5699 5700 5701 5702 5702 5703 5704 5704 5705 5705 5705 5705 5705 5705 5704 5704 5704 5703 5703 5702 5702 5702 5701 5701 5700 5700 5700 5699 5699 5699 5699 5699 5699 5699 5699 5699 5698 5698 5697 5697 5697 5697 5697 5698 5697 5697 5697 5695 5695 5696 5697 5697 5696 5695 5696 5698 5698 5697 5697 5698 5699 5700 5701 5701 5702 5703 5704 5705
5682 5682 5683 5684 5685 5686 5687 5688 5689 5690 5691 5691 5691 5692 5693 5693 5694 5694 5695 5696 5697 5697 5698 5699 5700 5700 5701 5701 5701 5700 5700 5700 5700 5699 5699 5698 5698 5697 5697 5696 5696 5695 5695 5694 5694 5694 5693 5693 5693 5693 5694 5694 5694 5694 5693 5693 5692 5692 5692 5692 5693 5692 5692 5692 5691 5690 5691 5691 5692 5691 5690 5690 5692 5692 5691 5691 5691 5692 5694 5694 5695 5696 5697 5698 5699
5678 5679 5679 5680 5682 5682 5683 5684 5685 5686 5687 5687 5687 5688 5688 5688 5689 5689 5690 5691 5692 5692 5693 5694 5695 5696 5696 5696 5696 5696 5696 5696 5695 5695 5694 5694 5693 5692 5691 5691 5690 5690 5689 5689 5688 5688 5688 5688 5688 5688 5688 5688 5689 5689 5688 5688 5687 5687 5687 5687 5687 5687 5687 5687 5686 5685 5685 5686 5686 5686 5685 5684 5686 5686 5685 5685 5685 5686 5687 5688 5688 5689 5690 5692 5693
5675 5675 5676 5677 5678 5678 5678 5679 5680 5681 5682 5682 5682 5683 5683 5684 5684 5684 5685 5686 5687 5688 5689 5690 5691 5691 5691 5692 5692 5692 5692 5691 5691 5691 5690 5689 5688 5687 5686 5686 5685 5685 5684 5684 5683 5682 5682 5682 5682 5682 5683 5683 5683 5683 5683 5683 5682 5682 5682 5682 5682 5682 5681 5681 5681 5680 5680 5681 5681 5681 5681 5679 5679 5680 5680 5679 5679 5680 5681 5681 5681 5682 5683 5684 5686
5671 5672 5672 5673 5673 5673 5673 5675 5675 5676 5677 5677 5677 5678 5678 5679 5679 5680 5680 5681 5682 5683 5684 5685 5686 5687 5687 5687 5687 5687 5687 5687 5687 5686 5686 5685 5684 5683 5682 5681 5680 5680 5679 5679 5678 5677 5677 5677 5677 5677 5677 5678 5678 5678 5678 5678 5678 5677 5677 5677 5677 5676 5676 5676 5675 5674 5675 5676 5676 5677 5676 5675 5675 5675 5674 5672 5672 5674 5675 5674 5674 5675 5676 5677 5679
5668 5668 5668 5668 5668 5668 5669 5670 5670 5671 5672 5672 5672 5673 5674 5674 5674 5675 5676 5676 5677 5678 5679 5680 5681 5682 5682 5682 5682 5683 5683 5683 5682 5682 5681 5680 5679 5678 5678 5677 5676 5675 5675 5674 5674 5673 5672 5672 5672 5672 5672 5672 5673 5673 5673 5673 5673 5672 5672 5672 5672 5671 5671 5671 5670 5669 5669 5670 5670 5671 5671 5670 5670 5670 5668 5666 5666 5667 5667 5667 5667 5669 5670 5671 5672
5663 5663 5664 5664 5664 5664 5664 5665 5666 5666 5667 5667 5667 5668 5669 5670 5670 5671 5671 5672 5673 5674 5675 5675 5676 5677 5677 5677 5678 5678 5678 5678 5678 5677 5677 5676 5675 5674 5674 5673 5672 5671 5671 5670 5669 5669 5668 5668 5668 5667 5667 5668 5668 5668 5668 5668 5668 5667 5667 5667 5667 5666 5666 5666 5665 5664 5663 5664 5665 5665 5665 5664 5663 5663 5662 5660 5660 5660 5660 5660 5661 5662 5663 5664 5665
5659 5659 5659 5659 5659 5659 5659 5660 5661 5661 5662 5662 5662 5663 5664 5665 5665 5666 5667 5667 5668 5669 5670 5671 5671 5672 5672 5673 5673 5673 5673 5673 5673 5672 5672 5671 5671 5670 5669 5669 5668 5667 5666 5666 5665 5665 5664 5664 5663 5663 5663 5663 5663 5663 5664 5664 5663 5663 5662 5662 5662 5661 5661 5661 5660 5659 5659 5659 5660 5659 5658 5658 5657 5656 5655 5653 5652 5652 5653 5654 5655 5655 5656 5657 5658
5654 5654 5654 5654 5654 5654 5654 5655 5656 5657 5658 5658 5658 5659 5660 5660 5660 5661 5662 5663 5664 5664 5665 5666 5666 5667 5667 5668 5668 5668 5668 5668 5668 5668 5667 5667 5666 5666 5665 5665 5664 5663 5662 5662 5661 5660 5660 5660 5659 5659 5659 5659 5659 5659 5660 5660 5659 5658 5658 5658 5657 5657 5657 5656 5656 5655 5655 5655 5655 5654 5653 5652 5651 5650 5649 5647 5646 5646 5647 5648 5648 5648 5649 5649 5650